M I D A S
Marine Information and Data Acquisition System
Tripno 1089 of the Zeeleeuw from 2006-02-03 07:37:51 to 2006-02-03 16:04:08
Back to CruiseResearch ActivitiesStationsMapUnderway DataData graphs

EquipmentUnitsComments
TimeDGPSUTC
LatitudeDGPSDM.mWGS84
LongitudeDGPSDM.mWGS84
SpeedMeteo Stationm/sRelative wind speed
DirectionMeteo StationdegRelative wind direction
TemperatureMeteo Stationdeg CelciusAir temperature
PressureMeteo StationPaAtmospheric pressure
HumidityMeteo Station%Relative humidity
Missing or incorrect values are displayed as -999
Metereological data collected by the RV Zeeleeuw from 2006-02-03 07:25:10 to 2006-02-03 16:17:19
Time Latitude Longitude Speed Direction Temperature Pressure Humidity
2006-02-03 07:26 51°13.617 2°56.032 -999 155 -0.5 102210 92
2006-02-03 07:27 51°13.65 2°55.923 -999 159 -0.5 102210 92
2006-02-03 07:28 51°13.684 2°55.797 -999 176 -0.5 102210 92
2006-02-03 07:29 51°13.701 2°55.713 -999 161 -0.5 102210 92
2006-02-03 07:30 51°13.731 2°55.735 -999 64 -0.6 102210 92
2006-02-03 07:31 51°13.725 2°55.731 -999 214 -0.5 102210 92
2006-02-03 07:32 51°13.751 2°55.706 -999 340 -0.6 102210 92
2006-02-03 07:33 51°13.859 2°55.617 -999 358 -0.6 102210 92
2006-02-03 07:34 51°13.968 2°55.536 -999 357 -0.5 102210 92
2006-02-03 07:35 51°14.067 2°55.467 -999 3 -0.5 102210 92
2006-02-03 07:36 51°14.154 2°55.397 -999 359 -0.5 102210 92
2006-02-03 07:37 51°14.231 2°55.307 -999 353 -0.5 102220 92
2006-02-03 07:38 51°14.3 2°55.187 -999 351 -0.4 102220 92
2006-02-03 07:39 51°14.381 2°55.04 -999 357 -0.3 102220 92
2006-02-03 07:40 51°14.533 2°54.88 -999 352 -0.3 102210 92
2006-02-03 07:41 51°14.728 2°54.772 -999 352 -0.2 102210 92
2006-02-03 07:42 51°14.928 2°54.652 -999 1 -0.1 102210 92
2006-02-03 07:43 51°15.129 2°54.537 -999 1 -0.1 102220 92
2006-02-03 07:44 51°15.34 2°54.46 -999 8 -0.1 102220 92
2006-02-03 07:45 51°15.555 2°54.393 -999 5 -999 102220 91
2006-02-03 07:46 51°15.769 2°54.345 -999 6 -999 102230 91
2006-02-03 07:47 51°15.978 2°54.306 -999 359 -999 102220 92
2006-02-03 07:48 51°16.102 2°54.309 -999 -999 0.1 102230 92
2006-02-03 07:49 51°16.169 2°54.312 -999 325 0.1 102230 92
2006-02-03 07:50 51°16.185 2°54.301 -999 160 0.1 102230 91
2006-02-03 07:51 51°16.192 2°54.294 -999 160 0.2 102230 91
2006-02-03 07:52 51°16.196 2°54.288 -999 142 0.2 102230 91
2006-02-03 07:53 51°16.198 2°54.283 -999 164 0.2 102240 91
2006-02-03 07:54 51°16.2 2°54.276 -999 188 0.2 102230 91
2006-02-03 07:55 51°16.201 2°54.27 -999 191 0.3 102230 91
2006-02-03 07:56 51°16.201 2°54.263 -999 181 0.3 102230 91
2006-02-03 07:57 51°16.2 2°54.255 -999 163 0.4 102240 91
2006-02-03 07:58 51°16.2 2°54.248 -999 169 0.4 102230 91
2006-02-03 07:59 51°16.198 2°54.239 -999 160 0.3 102240 90
2006-02-03 08:00 51°16.197 2°54.23 -999 157 0.3 102240 90
2006-02-03 08:01 51°16.196 2°54.22 -999 145 0.2 102240 91
2006-02-03 08:02 51°16.193 2°54.21 -999 147 0.2 102240 91
2006-02-03 08:03 51°16.191 2°54.2 -999 142 0.2 102240 91
2006-02-03 08:04 51°16.188 2°54.189 -999 150 0.1 102240 91
2006-02-03 08:05 51°16.185 2°54.177 -999 143 0.2 102240 91
2006-02-03 08:06 51°16.182 2°54.165 -999 125 0.1 102250 91
2006-02-03 08:07 51°16.178 2°54.153 -999 114 0.1 102240 92
2006-02-03 08:08 51°16.174 2°54.139 -999 117 0.2 102240 92
2006-02-03 08:09 51°16.17 2°54.125 -999 126 0.1 102240 92
2006-02-03 08:10 51°16.167 2°54.131 -999 124 0.1 102240 92
2006-02-03 08:11 51°16.224 2°54.153 -999 336 0.1 102250 92
2006-02-03 08:12 51°16.298 2°53.99 -999 337 0.1 102240 92
2006-02-03 08:13 51°16.436 2°53.754 -999 352 0.1 102240 92
2006-02-03 08:14 51°16.597 2°53.506 -999 346 0.1 102240 92
2006-02-03 08:15 51°16.752 2°53.249 -999 348 0.2 102250 92
2006-02-03 08:16 51°16.902 2°52.997 -999 350 0.2 102250 92
2006-02-03 08:17 51°17.068 2°52.766 -999 353 0.3 102260 92
2006-02-03 08:18 51°17.232 2°52.513 -999 349 0.3 102250 92
2006-02-03 08:19 51°17.394 2°52.263 -999 351 0.3 102250 92
2006-02-03 08:20 51°17.571 2°52.045 -999 346 0.3 102250 92
2006-02-03 08:21 51°17.75 2°51.831 -999 351 0.4 102240 92
2006-02-03 08:22 51°17.93 2°51.619 -999 354 0.4 102250 92
2006-02-03 08:23 51°18.11 2°51.4 -999 351 0.4 102250 92
2006-02-03 08:24 51°18.255 2°51.213 -999 340 0.5 102250 91
2006-02-03 08:25 51°18.354 2°51.103 -999 42 0.5 102260 91
2006-02-03 08:26 51°18.4 2°51.068 -999 202 0.5 102260 91
2006-02-03 08:27 51°18.4 2°51.047 -999 190 0.6 102260 91
2006-02-03 08:28 51°18.398 2°51.03 -999 158 0.7 102260 91
2006-02-03 08:29 51°18.397 2°51.013 -999 146 0.7 102270 91
2006-02-03 08:30 51°18.396 2°50.997 -999 143 0.7 102270 90
2006-02-03 08:31 51°18.395 2°50.981 -999 136 0.7 102270 91
2006-02-03 08:32 51°18.393 2°50.966 -999 148 0.6 102270 91
2006-02-03 08:33 51°18.391 2°50.953 -999 135 0.6 102270 91
2006-02-03 08:34 51°18.42 2°51.044 -999 35 0.5 102270 91
2006-02-03 08:35 51°18.488 2°51.314 -999 23 0.5 102230 91
2006-02-03 08:36 51°18.555 2°51.626 -999 14 0.5 102230 92
2006-02-03 08:37 51°18.631 2°51.932 -999 8 0.6 102230 92
2006-02-03 08:38 51°18.707 2°52.236 -999 16 0.5 102230 91
2006-02-03 08:39 51°18.783 2°52.54 -999 14 0.5 102230 91
2006-02-03 08:40 51°18.855 2°52.843 -999 6 0.5 102230 91
2006-02-03 08:41 51°18.93 2°53.145 -999 12 0.6 102230 91
2006-02-03 08:42 51°19.004 2°53.448 -999 9 0.6 102230 91
2006-02-03 08:43 51°19.077 2°53.751 -999 14 0.6 102230 91
2006-02-03 08:44 51°19.147 2°54.054 -999 17 0.6 102240 92
2006-02-03 08:45 51°19.218 2°54.355 -999 20 0.6 102230 91
2006-02-03 08:46 51°19.29 2°54.657 -999 18 0.6 102260 91
2006-02-03 08:47 51°19.364 2°54.96 -999 16 0.6 102250 91
2006-02-03 08:48 51°19.44 2°55.263 -999 15 0.6 102240 90
2006-02-03 08:49 51°19.503 2°55.567 -999 20 0.6 102250 90
2006-02-03 08:50 51°19.571 2°55.879 -999 18 0.6 102250 89
2006-02-03 08:51 51°19.639 2°56.188 -999 15 0.6 102250 89
2006-02-03 08:52 51°19.71 2°56.496 -999 18 0.5 102260 89
2006-02-03 08:53 51°19.778 2°56.805 -999 16 0.5 102250 89
2006-02-03 08:54 51°19.845 2°57.111 -999 18 0.5 102250 89
2006-02-03 08:55 51°19.912 2°57.418 -999 15 0.5 102250 89
2006-02-03 08:56 51°19.979 2°57.719 -999 16 0.5 102250 89
2006-02-03 08:57 51°20.045 2°58.018 -999 14 0.4 102260 89
2006-02-03 08:58 51°20.111 2°58.315 -999 16 0.4 102250 89
2006-02-03 08:59 51°20.178 2°58.61 -999 18 0.4 102260 89
2006-02-03 09:00 51°20.245 2°58.904 -999 17 0.4 102260 89
2006-02-03 09:01 51°20.306 2°59.201 -999 19 0.3 102260 89
2006-02-03 09:02 51°20.366 2°59.498 -999 17 0.3 102260 89
2006-02-03 09:03 51°20.435 2°59.788 -999 10 0.3 102260 89
2006-02-03 09:04 51°20.497 3°0.08 -999 10 0.3 102270 89
2006-02-03 09:05 51°20.558 3°0.369 -999 14 0.3 102270 89
2006-02-03 09:06 51°20.62 3°0.657 -999 11 0.3 102290 89
2006-02-03 09:07 51°20.678 3°0.947 -999 14 0.3 102260 89
2006-02-03 09:08 51°20.742 3°1.232 -999 11 0.3 102260 89
2006-02-03 09:09 51°20.8 3°1.518 -999 16 0.3 102270 90
2006-02-03 09:10 51°20.861 3°1.804 -999 16 0.3 102260 90
2006-02-03 09:11 51°20.919 3°2.089 -999 14 0.3 102270 90
2006-02-03 09:12 51°20.984 3°2.367 -999 14 0.3 102260 90
2006-02-03 09:13 51°21.048 3°2.643 -999 15 0.3 102270 90
2006-02-03 09:14 51°21.112 3°2.92 -999 17 0.3 102270 89
2006-02-03 09:15 51°21.173 3°3.198 -999 16 0.3 102270 90
2006-02-03 09:16 51°21.234 3°3.476 -999 11 0.4 102260 90
2006-02-03 09:17 51°21.299 3°3.751 -999 17 0.3 102270 90
2006-02-03 09:18 51°21.357 3°4.027 -999 14 0.3 102270 90
2006-02-03 09:19 51°21.419 3°4.302 -999 20 0.3 102280 90
2006-02-03 09:20 51°21.482 3°4.572 -999 18 0.3 102270 90
2006-02-03 09:21 51°21.541 3°4.839 -999 16 0.3 102270 90
2006-02-03 09:22 51°21.599 3°5.105 -999 21 0.3 102270 90
2006-02-03 09:23 51°21.654 3°5.369 -999 18 0.3 102270 90
2006-02-03 09:24 51°21.707 3°5.633 -999 17 0.3 102270 90
2006-02-03 09:25 51°21.759 3°5.898 -999 20 0.3 102270 90
2006-02-03 09:26 51°21.808 3°6.166 -999 24 0.2 102270 90
2006-02-03 09:27 51°21.859 3°6.436 -999 31 0.3 102270 90
2006-02-03 09:28 51°21.91 3°6.706 -999 30 0.3 102270 90
2006-02-03 09:29 51°21.964 3°6.976 -999 30 0.2 102260 90
2006-02-03 09:30 51°22.019 3°7.248 -999 30 0.3 102290 91
2006-02-03 09:31 51°22.073 3°7.52 -999 29 0.3 102290 90
2006-02-03 09:32 51°22.128 3°7.794 -999 31 0.3 102290 90
2006-02-03 09:33 51°22.136 3°8.082 -999 34 0.3 102290 90
2006-02-03 09:34 51°22.137 3°8.373 -999 38 0.3 102290 90
2006-02-03 09:35 51°22.139 3°8.664 -999 31 0.3 102290 90
2006-02-03 09:36 51°22.14 3°8.956 -999 37 0.3 102290 90
2006-02-03 09:37 51°22.139 3°9.246 -999 36 0.2 102280 91
2006-02-03 09:38 51°22.142 3°9.535 -999 36 0.2 102280 91
2006-02-03 09:39 51°22.143 3°9.823 -999 38 0.1 102280 91
2006-02-03 09:40 51°22.145 3°10.113 -999 38 0.1 102290 91
2006-02-03 09:41 51°22.146 3°10.404 -999 29 -999 102290 91
2006-02-03 09:42 51°22.154 3°10.696 -999 28 -999 102290 91
2006-02-03 09:43 51°22.164 3°10.991 -999 30 0.1 102290 91
2006-02-03 09:44 51°22.175 3°11.287 -999 34 0.1 102290 91
2006-02-03 09:45 51°22.19 3°11.579 -999 33 0.1 102290 91
2006-02-03 09:46 51°22.242 3°11.862 -999 30 0.1 102290 91
2006-02-03 09:47 51°22.307 3°12.143 -999 31 0.1 102290 91
2006-02-03 09:48 51°22.377 3°12.42 -999 35 0.1 102290 91
2006-02-03 09:49 51°22.444 3°12.668 -999 40 0.1 102290 90
2006-02-03 09:50 51°22.495 3°12.85 -999 66 0.1 102290 90
2006-02-03 09:51 51°22.555 3°12.921 -999 138 0.1 102300 91
2006-02-03 09:52 51°22.6 3°12.946 -999 136 0.2 102300 91
2006-02-03 09:53 51°22.617 3°12.994 -999 94 0.2 102300 91
2006-02-03 09:54 51°22.617 3°13.048 -999 106 0.2 102300 91
2006-02-03 09:55 51°22.628 3°13.09 -999 135 0.2 102300 90
2006-02-03 09:56 51°22.652 3°13.11 -999 156 0.2 102290 90
2006-02-03 09:57 51°22.666 3°13.098 -999 163 0.2 102290 90
2006-02-03 09:58 51°22.676 3°13.079 -999 155 0.1 102290 90
2006-02-03 09:59 51°22.683 3°13.056 -999 155 0.1 102300 89
2006-02-03 10:00 51°22.687 3°13.029 -999 147 0.1 102290 90
2006-02-03 10:01 51°22.69 3°12.999 -999 143 0.1 102290 89
2006-02-03 10:02 51°22.69 3°12.964 -999 142 0.1 102290 89
2006-02-03 10:03 51°22.69 3°12.937 -999 149 0.2 102300 89
2006-02-03 10:04 51°22.745 3°12.998 -999 350 0.2 102300 90
2006-02-03 10:05 51°22.845 3°13.179 -999 12 0.3 102290 90
2006-02-03 10:06 51°23.003 3°13.326 -999 352 0.3 102300 89
2006-02-03 10:07 51°23.197 3°13.414 -999 351 0.3 102290 89
2006-02-03 10:08 51°23.393 3°13.5 -999 359 0.3 102290 89
2006-02-03 10:09 51°23.589 3°13.589 -999 2 0.4 102290 89
2006-02-03 10:10 51°23.786 3°13.681 -999 351 0.4 102260 89
2006-02-03 10:11 51°23.986 3°13.763 -999 351 0.4 102260 89
2006-02-03 10:12 51°24.187 3°13.852 -999 351 0.4 102270 89
2006-02-03 10:13 51°24.391 3°13.933 -999 353 0.5 102260 89
2006-02-03 10:14 51°24.594 3°14.007 -999 352 0.5 102260 88
2006-02-03 10:15 51°24.798 3°14.075 -999 352 0.5 102260 89
2006-02-03 10:16 51°24.958 3°14.241 -999 17 0.6 102260 89
2006-02-03 10:17 51°25.041 3°14.517 -999 23 0.5 102260 89
2006-02-03 10:18 51°25.119 3°14.797 -999 30 0.5 102260 89
2006-02-03 10:19 51°25.2 3°15.08 -999 26 0.6 102260 89
2006-02-03 10:20 51°25.276 3°15.365 -999 34 0.6 102260 89
2006-02-03 10:21 51°25.354 3°15.656 -999 33 0.6 102250 89
2006-02-03 10:22 51°25.423 3°15.951 -999 33 0.6 102260 90
2006-02-03 10:23 51°25.492 3°16.245 -999 29 0.5 102260 90
2006-02-03 10:24 51°25.563 3°16.532 -999 34 0.5 102260 90
2006-02-03 10:25 51°25.647 3°16.804 -999 30 0.5 102270 90
2006-02-03 10:26 51°25.702 3°17.091 -999 30 0.5 102270 90
2006-02-03 10:27 51°25.782 3°17.322 -999 43 0.5 102300 90
2006-02-03 10:28 51°25.806 3°17.484 -999 63 0.5 102300 90
2006-02-03 10:29 51°25.851 3°17.577 -999 100 0.5 102300 91
2006-02-03 10:30 51°25.859 3°17.661 -999 87 0.6 102300 91
2006-02-03 10:31 51°25.854 3°17.733 -999 106 0.5 102310 91
2006-02-03 10:32 51°25.856 3°17.755 -999 136 0.5 102300 91
2006-02-03 10:33 51°25.853 3°17.757 -999 142 0.6 102310 91
2006-02-03 10:34 51°25.848 3°17.754 -999 140 0.6 102310 91
2006-02-03 10:35 51°25.841 3°17.747 -999 139 0.6 102310 91
2006-02-03 10:36 51°25.834 3°17.736 -999 136 0.6 102310 91
2006-02-03 10:37 51°25.826 3°17.724 -999 115 0.6 102310 91
2006-02-03 10:38 51°25.803 3°17.736 -999 59 0.6 102300 91
2006-02-03 10:39 51°25.715 3°17.694 -999 3 0.6 102300 91
2006-02-03 10:40 51°25.658 3°17.462 -999 356 0.6 102290 91
2006-02-03 10:41 51°25.605 3°17.122 -999 352 0.6 102270 91
2006-02-03 10:42 51°25.569 3°16.768 -999 359 0.6 102270 91
2006-02-03 10:43 51°25.514 3°16.418 -999 355 0.7 102270 91
2006-02-03 10:44 51°25.473 3°16.062 -999 355 0.6 102270 90
2006-02-03 10:45 51°25.41 3°15.708 -999 351 0.6 102270 90
2006-02-03 10:46 51°25.368 3°15.344 -999 353 0.7 102270 90
2006-02-03 10:47 51°25.32 3°14.978 -999 354 0.7 102270 90
2006-02-03 10:48 51°25.272 3°14.612 -999 350 0.7 102270 90
2006-02-03 10:49 51°25.242 3°14.241 -999 349 0.7 102260 89
2006-02-03 10:50 51°25.218 3°13.865 -999 353 0.8 102270 89
2006-02-03 10:51 51°25.193 3°13.486 -999 355 0.9 102270 89
2006-02-03 10:52 51°25.167 3°13.106 -999 355 0.8 102270 89
2006-02-03 10:53 51°25.142 3°12.727 -999 348 0.8 102270 89
2006-02-03 10:54 51°25.113 3°12.349 -999 346 0.8 102260 89
2006-02-03 10:55 51°25.085 3°11.972 -999 344 0.8 102260 89
2006-02-03 10:56 51°25.055 3°11.598 -999 347 0.8 102270 90
2006-02-03 10:57 51°25.021 3°11.226 -999 346 0.9 102270 90
2006-02-03 10:58 51°24.991 3°10.857 -999 346 0.9 102270 90
2006-02-03 10:59 51°24.913 3°10.511 -999 354 0.9 102270 90
2006-02-03 11:00 51°24.833 3°10.165 -999 354 0.9 102270 90
2006-02-03 11:01 51°24.76 3°9.814 -999 351 0.9 102270 89
2006-02-03 11:02 51°24.705 3°9.456 -999 356 1 102270 89
2006-02-03 11:03 51°24.652 3°9.099 -999 349 1 102270 89
2006-02-03 11:04 51°24.609 3°8.738 -999 353 0.9 102270 89
2006-02-03 11:05 51°24.582 3°8.374 -999 356 0.9 102270 89
2006-02-03 11:06 51°24.545 3°8.014 -999 350 0.9 102270 89
2006-02-03 11:07 51°24.51 3°7.655 -999 351 0.9 102270 89
2006-02-03 11:08 51°24.49 3°7.296 -999 349 0.9 102270 89
2006-02-03 11:09 51°24.507 3°6.946 -999 346 1 102270 89
2006-02-03 11:10 51°24.645 3°6.703 -999 338 0.9 102280 89
2006-02-03 11:11 51°24.84 3°6.681 -999 -999 0.9 102280 89
2006-02-03 11:12 51°25.015 3°6.814 -999 6 0.9 102280 89
2006-02-03 11:13 51°25.183 3°6.966 -999 355 0.9 102270 89
2006-02-03 11:14 51°25.342 3°7.139 -999 5 1 102280 90
2006-02-03 11:15 51°25.506 3°7.299 -999 359 1 102270 89
2006-02-03 11:16 51°25.659 3°7.486 -999 10 1 102280 90
2006-02-03 11:17 51°25.817 3°7.662 -999 352 1 102280 90
2006-02-03 11:18 51°25.971 3°7.844 -999 354 1 102280 90
2006-02-03 11:19 51°26.129 3°8.004 -999 359 1 102280 90
2006-02-03 11:20 51°26.267 3°8.184 -999 344 1.1 102280 90
2006-02-03 11:21 51°26.35 3°8.219 -999 297 1.1 102310 90
2006-02-03 11:22 51°26.394 3°8.194 -999 285 1.1 102310 90
2006-02-03 11:23 51°26.436 3°8.237 -999 276 1.1 102310 90
2006-02-03 11:24 51°26.439 3°8.272 -999 175 1.1 102310 90
2006-02-03 11:25 51°26.428 3°8.278 -999 182 1.2 102310 90
2006-02-03 11:26 51°26.416 3°8.281 -999 194 1.4 102310 90
2006-02-03 11:27 51°26.403 3°8.282 -999 209 1.5 102300 89
2006-02-03 11:28 51°26.389 3°8.281 -999 172 1.6 102300 89
2006-02-03 11:29 51°26.376 3°8.282 -999 213 1.7 102300 89
2006-02-03 11:30 51°26.433 3°8.272 -999 227 1.7 102290 87
2006-02-03 11:31 51°26.53 3°8.097 -999 337 1.5 102300 87
2006-02-03 11:32 51°26.652 3°7.839 -999 343 1.4 102270 87
2006-02-03 11:33 51°26.77 3°7.556 -999 343 1.3 102270 87
2006-02-03 11:34 51°26.891 3°7.273 -999 339 1.3 102260 87
2006-02-03 11:35 51°27.005 3°6.981 -999 338 1.3 102260 88
2006-02-03 11:36 51°27.114 3°6.684 -999 342 1.2 102260 88
2006-02-03 11:37 51°27.228 3°6.39 -999 338 1.3 102260 88
2006-02-03 11:38 51°27.344 3°6.098 -999 335 1.2 102250 88
2006-02-03 11:39 51°27.459 3°5.804 -999 331 1.2 102250 89
2006-02-03 11:40 51°27.576 3°5.509 -999 336 1.3 102250 89
2006-02-03 11:41 51°27.689 3°5.208 -999 332 1.3 102250 89
2006-02-03 11:42 51°27.8 3°4.905 -999 334 1.3 102250 89
2006-02-03 11:43 51°27.913 3°4.602 -999 330 1.3 102250 89
2006-02-03 11:44 51°28.026 3°4.293 -999 336 1.3 102250 90
2006-02-03 11:45 51°28.127 3°4.006 -999 324 1.3 102270 89
2006-02-03 11:46 51°28.176 3°3.786 -999 321 1.4 102280 89
2006-02-03 11:47 51°28.213 3°3.645 -999 284 1.3 102280 89
2006-02-03 11:48 51°28.244 3°3.576 -999 248 1.4 102290 89
2006-02-03 11:49 51°28.24 3°3.539 -999 231 1.4 102280 90
2006-02-03 11:50 51°28.221 3°3.506 -999 228 1.4 102290 90
2006-02-03 11:51 51°28.205 3°3.474 -999 222 1.5 102290 90
2006-02-03 11:52 51°28.191 3°3.444 -999 219 1.5 102290 90
2006-02-03 11:53 51°28.177 3°3.415 -999 215 1.4 102290 90
2006-02-03 11:54 51°28.165 3°3.387 -999 224 1.5 102280 90
2006-02-03 11:55 51°28.167 3°3.356 -999 267 1.4 102280 89
2006-02-03 11:56 51°28.206 3°3.233 -999 340 1.4 102280 89
2006-02-03 11:57 51°28.173 3°2.929 -999 350 1.5 102240 89
2006-02-03 11:58 51°28.126 3°2.551 -999 350 1.5 102240 89
2006-02-03 11:59 51°28.078 3°2.168 -999 351 1.6 102240 89
2006-02-03 12:00 51°28.032 3°1.783 -999 352 1.6 102240 89
2006-02-03 12:01 51°27.984 3°1.4 -999 348 1.6 102240 90
2006-02-03 12:02 51°27.926 3°1.019 -999 351 1.7 102250 90
2006-02-03 12:03 51°27.866 3°0.64 -999 356 1.7 102250 90
2006-02-03 12:04 51°27.807 3°0.262 -999 356 1.7 102250 90
2006-02-03 12:05 51°27.747 2°59.887 -999 357 1.7 102260 90
2006-02-03 12:06 51°27.688 2°59.512 -999 356 1.7 102260 90
2006-02-03 12:07 51°27.628 2°59.139 -999 356 1.7 102260 90
2006-02-03 12:08 51°27.569 2°58.767 -999 351 1.7 102250 90
2006-02-03 12:09 51°27.509 2°58.393 -999 353 1.8 102240 90
2006-02-03 12:10 51°27.448 2°58.018 -999 351 1.7 102240 90
2006-02-03 12:11 51°27.387 2°57.641 -999 357 1.8 102250 90
2006-02-03 12:12 51°27.326 2°57.263 -999 354 1.8 102250 90
2006-02-03 12:13 51°27.266 2°56.885 -999 357 1.8 102250 90
2006-02-03 12:14 51°27.206 2°56.502 -999 352 1.8 102250 90
2006-02-03 12:15 51°27.145 2°56.122 -999 353 1.8 102250 90
2006-02-03 12:16 51°27.086 2°55.743 -999 354 1.8 102250 89
2006-02-03 12:17 51°27.028 2°55.366 -999 354 1.8 102250 90
2006-02-03 12:18 51°26.97 2°54.989 -999 353 1.8 102250 90
2006-02-03 12:19 51°26.913 2°54.612 -999 353 1.8 102250 90
2006-02-03 12:20 51°26.852 2°54.228 -999 350 1.8 102250 90
2006-02-03 12:21 51°26.795 2°53.843 -999 354 1.8 102240 90
2006-02-03 12:22 51°26.739 2°53.462 -999 351 1.8 102240 90
2006-02-03 12:23 51°26.685 2°53.084 -999 347 1.8 102240 90
2006-02-03 12:24 51°26.632 2°52.71 -999 345 1.8 102240 90
2006-02-03 12:25 51°26.576 2°52.341 -999 351 1.8 102240 91
2006-02-03 12:26 51°26.52 2°51.974 -999 351 1.8 102240 91
2006-02-03 12:27 51°26.465 2°51.606 -999 348 1.8 102240 91
2006-02-03 12:28 51°26.411 2°51.237 -999 348 1.9 102240 91
2006-02-03 12:29 51°26.357 2°50.868 -999 351 1.9 102240 91
2006-02-03 12:30 51°26.301 2°50.498 -999 356 1.9 102240 91
2006-02-03 12:31 51°26.247 2°50.128 -999 357 1.9 102230 91
2006-02-03 12:32 51°26.194 2°49.758 -999 357 1.9 102240 91
2006-02-03 12:33 51°26.142 2°49.389 -999 355 1.9 102240 91
2006-02-03 12:34 51°26.09 2°49.03 -999 354 2 102230 91
2006-02-03 12:35 51°26.042 2°48.813 -999 357 2 102250 91
2006-02-03 12:36 51°25.999 2°48.715 -999 337 2 102260 91
2006-02-03 12:37 51°25.98 2°48.691 -999 298 2 102260 91
2006-02-03 12:38 51°25.962 2°48.669 -999 286 2 102260 91
2006-02-03 12:39 51°25.945 2°48.648 -999 281 2 102260 91
2006-02-03 12:40 51°25.929 2°48.626 -999 274 2 102260 91
2006-02-03 12:41 51°25.913 2°48.604 -999 282 2 102260 91
2006-02-03 12:42 51°25.897 2°48.582 -999 278 2.1 102260 91
2006-02-03 12:43 51°25.881 2°48.561 -999 264 2.1 102270 92
2006-02-03 12:44 51°25.866 2°48.54 -999 271 2.1 102260 91
2006-02-03 12:45 51°25.85 2°48.518 -999 282 2.1 102260 91
2006-02-03 12:46 51°25.834 2°48.497 -999 265 2.1 102270 91
2006-02-03 12:47 51°25.819 2°48.476 -999 277 2.1 102270 92
2006-02-03 12:48 51°25.804 2°48.455 -999 283 2.1 102260 91
2006-02-03 12:49 51°25.789 2°48.434 -999 280 2.1 102270 92
2006-02-03 12:50 51°25.774 2°48.413 -999 298 2.1 102260 92
2006-02-03 12:51 51°25.75 2°48.359 -999 339 2.1 102260 92
2006-02-03 12:52 51°25.668 2°48.178 -999 350 2.1 102250 91
2006-02-03 12:53 51°25.562 2°47.852 -999 352 2.1 102240 91
2006-02-03 12:54 51°25.455 2°47.518 -999 350 2.1 102220 91
2006-02-03 12:55 51°25.349 2°47.184 -999 349 2.1 102220 91
2006-02-03 12:56 51°25.242 2°46.849 -999 348 2.1 102210 91
2006-02-03 12:57 51°25.134 2°46.512 -999 346 2.1 102210 91
2006-02-03 12:58 51°25.023 2°46.168 -999 347 2.1 102210 92
2006-02-03 12:59 51°24.915 2°45.836 -999 350 2.1 102220 92
2006-02-03 13:00 51°24.803 2°45.494 -999 351 2.2 102210 92
2006-02-03 13:01 51°24.696 2°45.162 -999 351 2.2 102210 91
2006-02-03 13:02 51°24.586 2°44.825 -999 348 2.2 102210 92
2006-02-03 13:03 51°24.478 2°44.488 -999 349 2.2 102210 91
2006-02-03 13:04 51°24.37 2°44.15 -999 350 2.2 102200 91
2006-02-03 13:05 51°24.259 2°43.807 -999 351 2.2 102210 91
2006-02-03 13:06 51°24.152 2°43.476 -999 353 2.3 102210 91
2006-02-03 13:07 51°24.044 2°43.14 -999 355 2.3 102210 91
2006-02-03 13:08 51°23.931 2°42.809 -999 2 2.3 102220 91
2006-02-03 13:09 51°23.778 2°42.522 -999 -999 2.3 102220 91
2006-02-03 13:10 51°23.623 2°42.236 -999 359 2.3 102220 91
2006-02-03 13:11 51°23.47 2°41.95 -999 355 2.3 102210 91
2006-02-03 13:12 51°23.322 2°41.659 -999 351 2.3 102210 91
2006-02-03 13:13 51°23.193 2°41.347 -999 349 2.3 102210 90
2006-02-03 13:14 51°23.091 2°41.012 -999 353 2.3 102230 90
2006-02-03 13:15 51°22.99 2°40.679 -999 353 2.3 102220 90
2006-02-03 13:16 51°22.889 2°40.336 -999 356 2.3 102210 90
2006-02-03 13:17 51°22.787 2°40.007 -999 357 2.3 102200 90
2006-02-03 13:18 51°22.685 2°39.672 -999 360 2.3 102200 90
2006-02-03 13:19 51°22.583 2°39.338 -999 360 2.3 102200 90
2006-02-03 13:20 51°22.48 2°39.007 -999 -999 2.3 102200 90
2006-02-03 13:21 51°22.379 2°38.677 -999 2 2.3 102190 90
2006-02-03 13:22 51°22.277 2°38.347 -999 354 2.3 102190 90
2006-02-03 13:23 51°22.176 2°38.017 -999 355 2.4 102190 90
2006-02-03 13:24 51°22.074 2°37.688 -999 356 2.3 102190 90
2006-02-03 13:25 51°21.973 2°37.359 -999 355 2.3 102190 90
2006-02-03 13:26 51°21.872 2°37.031 -999 356 2.3 102190 90
2006-02-03 13:27 51°21.771 2°36.706 -999 356 2.4 102190 91
2006-02-03 13:28 51°21.672 2°36.378 -999 359 2.4 102190 91
2006-02-03 13:29 51°21.572 2°36.051 -999 357 2.4 102220 91
2006-02-03 13:30 51°21.474 2°35.727 -999 360 2.4 102190 91
2006-02-03 13:31 51°21.375 2°35.4 -999 3 2.5 102190 91
2006-02-03 13:32 51°21.275 2°35.069 -999 3 2.5 102190 91
2006-02-03 13:33 51°21.177 2°34.749 -999 3 2.5 102190 91
2006-02-03 13:34 51°21.076 2°34.424 -999 4 2.5 102180 91
2006-02-03 13:35 51°20.977 2°34.1 -999 6 2.5 102180 91
2006-02-03 13:36 51°20.879 2°33.772 -999 7 2.5 102180 91
2006-02-03 13:37 51°20.784 2°33.459 -999 3 2.5 102180 91
2006-02-03 13:38 51°20.687 2°33.14 -999 5 2.5 102180 91
2006-02-03 13:39 51°20.587 2°32.815 -999 2 2.5 102180 91
2006-02-03 13:40 51°20.491 2°32.505 -999 4 2.5 102180 91
2006-02-03 13:41 51°20.4 2°32.189 -999 3 2.5 102180 91
2006-02-03 13:42 51°20.341 2°31.853 -999 358 2.5 102180 91
2006-02-03 13:43 51°20.282 2°31.517 -999 2 2.5 102180 90
2006-02-03 13:44 51°20.225 2°31.184 -999 5 2.6 102180 90
2006-02-03 13:45 51°20.167 2°30.859 -999 6 2.6 102180 90
2006-02-03 13:46 51°20.113 2°30.547 -999 6 2.6 102180 89
2006-02-03 13:47 51°20.073 2°30.342 -999 12 2.7 102210 89
2006-02-03 13:48 51°20.055 2°30.217 -999 8 2.7 102210 89
2006-02-03 13:49 51°19.998 2°30.154 -999 37 2.7 102200 88
2006-02-03 13:50 51°19.984 2°30.176 -999 77 2.7 102210 88
2006-02-03 13:51 51°19.978 2°30.208 -999 85 2.7 102210 88
2006-02-03 13:52 51°19.971 2°30.24 -999 87 2.7 102210 88
2006-02-03 13:53 51°19.964 2°30.272 -999 87 2.8 102210 88
2006-02-03 13:54 51°19.957 2°30.305 -999 86 2.8 102210 88
2006-02-03 13:55 51°19.949 2°30.341 -999 86 2.9 102210 88
2006-02-03 13:56 51°19.901 2°30.405 -999 6 2.9 102210 87
2006-02-03 13:57 51°19.789 2°30.607 -999 11 2.9 102210 87
2006-02-03 13:58 51°19.638 2°30.856 -999 14 2.8 102200 87
2006-02-03 13:59 51°19.487 2°31.131 -999 13 2.7 102200 87
2006-02-03 14:00 51°19.339 2°31.409 -999 13 2.6 102180 87
2006-02-03 14:01 51°19.194 2°31.687 -999 15 2.5 102170 87
2006-02-03 14:02 51°19.051 2°31.972 -999 17 2.5 102180 88
2006-02-03 14:03 51°18.909 2°32.258 -999 18 2.5 102170 88
2006-02-03 14:04 51°18.767 2°32.546 -999 19 2.4 102170 88
2006-02-03 14:05 51°18.633 2°32.829 -999 20 2.3 102170 87
2006-02-03 14:06 51°18.493 2°33.117 -999 19 2.2 102180 87
2006-02-03 14:07 51°18.349 2°33.404 -999 17 2.2 102180 88
2006-02-03 14:08 51°18.208 2°33.699 -999 16 2.1 102180 88
2006-02-03 14:09 51°18.065 2°33.996 -999 18 2 102180 88
2006-02-03 14:10 51°17.928 2°34.284 -999 14 2 102170 87
2006-02-03 14:11 51°17.788 2°34.575 -999 18 1.9 102170 88
2006-02-03 14:12 51°17.64 2°34.868 -999 15 1.9 102170 87
2006-02-03 14:13 51°17.49 2°35.164 -999 11 1.9 102170 87
2006-02-03 14:14 51°17.34 2°35.455 -999 16 1.8 102180 87
2006-02-03 14:15 51°17.18 2°35.742 -999 18 1.8 102180 87
2006-02-03 14:16 51°17.02 2°36.027 -999 19 1.8 102180 87
2006-02-03 14:17 51°16.856 2°36.27 -999 17 1.8 102180 87
2006-02-03 14:18 51°16.718 2°36.443 -999 20 1.7 102200 86
2006-02-03 14:19 51°16.617 2°36.565 -999 43 1.7 102200 86
2006-02-03 14:20 51°16.58 2°36.669 -999 50 1.7 102200 86
2006-02-03 14:21 51°16.576 2°36.714 -999 123 1.7 102200 87
2006-02-03 14:22 51°16.579 2°36.725 -999 121 1.6 102210 87
2006-02-03 14:23 51°16.583 2°36.741 -999 124 1.6 102210 87
2006-02-03 14:24 51°16.587 2°36.759 -999 122 1.6 102210 87
2006-02-03 14:25 51°16.591 2°36.781 -999 121 1.6 102210 86
2006-02-03 14:26 51°16.596 2°36.807 -999 121 1.6 102210 86
2006-02-03 14:27 51°16.601 2°36.834 -999 111 1.6 102200 87
2006-02-03 14:28 51°16.605 2°36.863 -999 112 1.6 102200 87
2006-02-03 14:29 51°16.61 2°36.895 -999 104 1.6 102200 86
2006-02-03 14:30 51°16.614 2°36.927 -999 97 1.6 102200 86
2006-02-03 14:31 51°16.618 2°36.961 -999 100 1.7 102200 87
2006-02-03 14:32 51°16.621 2°36.996 -999 95 1.6 102200 86
2006-02-03 14:33 51°16.624 2°37.032 -999 81 1.7 102200 86
2006-02-03 14:34 51°16.597 2°37.084 -999 35 1.6 102200 86
2006-02-03 14:35 51°16.46 2°37.183 -999 21 1.6 102200 86
2006-02-03 14:36 51°16.268 2°37.29 -999 13 1.6 102200 86
2006-02-03 14:37 51°16.066 2°37.406 -999 16 1.7 102190 86
2006-02-03 14:38 51°15.861 2°37.54 -999 13 1.7 102190 86
2006-02-03 14:39 51°15.654 2°37.678 -999 12 1.7 102190 86
2006-02-03 14:40 51°15.447 2°37.821 -999 12 1.7 102170 85
2006-02-03 14:41 51°15.238 2°37.97 -999 12 1.6 102170 85
2006-02-03 14:42 51°15.038 2°38.121 -999 16 1.6 102160 85
2006-02-03 14:43 51°14.841 2°38.287 -999 14 1.6 102160 85
2006-02-03 14:44 51°14.646 2°38.453 -999 12 1.6 102170 85
2006-02-03 14:45 51°14.454 2°38.619 -999 10 1.6 102170 85
2006-02-03 14:46 51°14.258 2°38.782 -999 6 1.6 102170 85
2006-02-03 14:47 51°14.057 2°38.912 -999 12 1.5 102160 86
2006-02-03 14:48 51°13.844 2°38.959 -999 16 1.5 102160 85
2006-02-03 14:49 51°13.644 2°38.915 -999 12 1.5 102160 85
2006-02-03 14:50 51°13.461 2°38.775 -999 11 1.5 102160 85
2006-02-03 14:51 51°13.285 2°38.633 -999 11 1.5 102160 85
2006-02-03 14:52 51°13.101 2°38.492 -999 13 1.5 102160 85
2006-02-03 14:53 51°12.929 2°38.346 -999 11 1.5 102160 85
2006-02-03 14:54 51°12.75 2°38.196 -999 10 1.5 102160 85
2006-02-03 14:55 51°12.576 2°38.054 -999 10 1.5 102160 85
2006-02-03 14:56 51°12.398 2°37.909 -999 11 1.5 102160 85
2006-02-03 14:57 51°12.219 2°37.764 -999 9 1.5 102160 85
2006-02-03 14:58 51°12.046 2°37.62 -999 10 1.5 102160 85
2006-02-03 14:59 51°11.867 2°37.473 -999 8 1.5 102160 85
2006-02-03 15:00 51°11.693 2°37.333 -999 12 1.5 102160 85
2006-02-03 15:01 51°11.516 2°37.19 -999 12 1.5 102160 85
2006-02-03 15:02 51°11.34 2°37.046 -999 10 1.5 102160 85
2006-02-03 15:03 51°11.164 2°36.903 -999 13 1.5 102170 85
2006-02-03 15:04 51°10.988 2°36.755 -999 12 1.5 102170 84
2006-02-03 15:05 51°10.812 2°36.626 -999 13 1.5 102170 84
2006-02-03 15:06 51°10.619 2°36.554 -999 13 1.5 102160 85
2006-02-03 15:07 51°10.424 2°36.625 -999 13 1.5 102170 85
2006-02-03 15:08 51°10.299 2°36.922 -999 9 1.5 102170 85
2006-02-03 15:09 51°10.311 2°37.317 -999 11 1.4 102170 85
2006-02-03 15:10 51°10.354 2°37.721 -999 8 1.4 102170 84
2006-02-03 15:11 51°10.396 2°38.123 -999 3 1.4 102170 84
2006-02-03 15:12 51°10.442 2°38.526 -999 9 1.4 102170 84
2006-02-03 15:13 51°10.502 2°38.918 -999 4 1.3 102170 85
2006-02-03 15:14 51°10.575 2°39.299 -999 5 1.4 102160 85
2006-02-03 15:15 51°10.652 2°39.686 -999 4 1.3 102170 85
2006-02-03 15:16 51°10.727 2°40.074 -999 7 1.3 102170 85
2006-02-03 15:17 51°10.8 2°40.467 -999 6 1.3 102160 85
2006-02-03 15:18 51°10.872 2°40.86 -999 8 1.3 102160 85
2006-02-03 15:19 51°10.944 2°41.251 -999 11 1.3 102160 85
2006-02-03 15:20 51°11.017 2°41.639 -999 6 1.4 102160 85
2006-02-03 15:21 51°11.088 2°41.856 -999 355 1.4 102190 85
2006-02-03 15:22 51°11.148 2°41.978 -999 327 1.4 102200 85
2006-02-03 15:23 51°11.168 2°42.032 -999 207 1.4 102200 85
2006-02-03 15:24 51°11.177 2°42.05 -999 194 1.4 102190 85
2006-02-03 15:25 51°11.186 2°42.076 -999 184 1.5 102190 85
2006-02-03 15:26 51°11.196 2°42.109 -999 164 1.6 102190 85
2006-02-03 15:27 51°11.207 2°42.147 -999 164 1.5 102190 84
2006-02-03 15:28 51°11.218 2°42.196 -999 137 1.5 102190 84
2006-02-03 15:29 51°11.239 2°42.457 -999 13 1.5 102180 84
2006-02-03 15:30 51°11.25 2°42.835 -999 12 1.4 102150 85
2006-02-03 15:31 51°11.274 2°43.23 -999 11 1.4 102160 85
2006-02-03 15:32 51°11.311 2°43.626 -999 15 1.5 102160 85
2006-02-03 15:33 51°11.358 2°44.017 -999 11 1.4 102180 85
2006-02-03 15:34 51°11.406 2°44.414 -999 9 1.4 102160 85
2006-02-03 15:35 51°11.453 2°44.795 -999 9 1.4 102160 85
2006-02-03 15:36 51°11.5 2°45.183 -999 9 1.4 102160 85
2006-02-03 15:37 51°11.55 2°45.571 -999 8 1.4 102160 85
2006-02-03 15:38 51°11.597 2°45.959 -999 9 1.5 102160 85
2006-02-03 15:39 51°11.652 2°46.344 -999 7 1.5 102160 85
2006-02-03 15:40 51°11.736 2°46.728 -999 6 1.5 102160 85
2006-02-03 15:41 51°11.828 2°47.096 -999 8 1.4 102160 85
2006-02-03 15:42 51°11.925 2°47.465 -999 5 1.4 102160 85
2006-02-03 15:43 51°12.037 2°47.82 -999 7 1.4 102160 86
2006-02-03 15:44 51°12.152 2°48.174 -999 5 1.4 102190 86
2006-02-03 15:45 51°12.267 2°48.527 -999 2 1.4 102190 86
2006-02-03 15:46 51°12.389 2°48.872 -999 4 1.4 102180 86
2006-02-03 15:47 51°12.516 2°49.213 -999 4 1.4 102160 86
2006-02-03 15:48 51°12.641 2°49.553 -999 1 1.4 102160 86
2006-02-03 15:49 51°12.767 2°49.893 -999 -999 1.4 102160 85
2006-02-03 15:50 51°12.898 2°50.23 -999 360 1.4 102160 86
2006-02-03 15:51 51°13.03 2°50.569 -999 359 1.4 102160 86
2006-02-03 15:52 51°13.166 2°50.914 -999 358 1.5 102160 86
2006-02-03 15:53 51°13.299 2°51.249 -999 358 1.5 102160 86
2006-02-03 15:54 51°13.433 2°51.589 -999 358 1.5 102160 86
2006-02-03 15:55 51°13.571 2°51.923 -999 358 1.5 102160 86
2006-02-03 15:56 51°13.707 2°52.262 -999 360 1.5 102160 86
2006-02-03 15:57 51°13.847 2°52.601 -999 358 1.5 102160 86
2006-02-03 15:58 51°13.985 2°52.94 -999 -999 1.5 102160 87
2006-02-03 15:59 51°14.122 2°53.282 -999 1 1.5 102160 87
2006-02-03 16:00 51°14.257 2°53.625 -999 357 1.5 102160 87
2006-02-03 16:01 51°14.37 2°53.993 -999 352 1.5 102160 87
2006-02-03 16:02 51°14.437 2°54.366 -999 347 1.5 102160 86
2006-02-03 16:03 51°14.435 2°54.758 -999 358 1.6 102160 86
2006-02-03 16:04 51°14.349 2°55.089 -999 30 1.5 102170 86
2006-02-03 16:05 51°14.228 2°55.307 -999 51 1.5 102180 86
2006-02-03 16:06 51°14.099 2°55.429 -999 59 1.5 102200 87
2006-02-03 16:07 51°13.98 2°55.52 -999 41 1.5 102190 87
2006-02-03 16:08 51°13.871 2°55.603 -999 41 1.5 102190 87
2006-02-03 16:09 51°13.777 2°55.683 -999 50 1.6 102190 87
2006-02-03 16:10 51°13.713 2°55.784 -999 110 1.6 102190 86
2006-02-03 16:11 51°13.671 2°55.878 -999 111 1.6 102190 86
2006-02-03 16:12 51°13.637 2°55.956 -999 135 1.6 102190 86
2006-02-03 16:13 51°13.617 2°56.024 -999 159 1.6 102190 86
2006-02-03 16:14 51°13.604 2°56.073 -999 170 1.6 102190 86
2006-02-03 16:15 51°13.599 2°56.088 -999 167 1.6 102190 86
2006-02-03 16:16 51°13.597 2°56.09 -999 164 1.7 102190 86